Time,TemperatureF,DewpointF,PressureIn,WindDirection,WindDirectionDegrees,WindSpeedMPH,WindSpeedGustMPH,Humidity,HourlyPrecipIn,Conditions,Clouds,dailyrainin,SoftwareType,DateUTC
2013-05-22 00:03:00,68.0,66.0,29.76,SW,215,0.0,1.0,94,0.00,,,0.56,,2013-05-22 04:03:00,
2013-05-22 00:13:00,68.0,66.0,29.76,SW,215,0.0,1.0,94,0.00,,,0.56,,2013-05-22 04:13:00,
2013-05-22 00:23:00,68.0,67.0,29.75,SW,215,1.0,4.0,95,0.00,,,0.56,,2013-05-22 04:23:00,
2013-05-22 00:33:00,68.0,67.0,29.75,SW,215,1.0,4.0,95,0.00,,,0.56,,2013-05-22 04:33:00,
2013-05-22 00:43:00,67.0,66.0,29.75,SW,215,0.0,0.0,95,0.00,,,0.56,,2013-05-22 04:43:00,
2013-05-22 00:53:00,67.0,66.0,29.75,SW,215,0.0,0.0,95,0.00,,,0.56,,2013-05-22 04:53:00,
2013-05-22 01:02:00,68.0,67.0,29.75,SSE,155,4.0,5.0,96,0.00,,,0.56,,2013-05-22 05:02:00,
2013-05-22 01:12:00,69.0,67.0,29.75,South,171,4.0,11.0,93,0.00,,,0.56,,2013-05-22 05:12:00,
2013-05-22 01:21:00,69.0,67.0,29.75,South,171,4.0,11.0,93,0.00,,,0.56,,2013-05-22 05:21:00,
2013-05-22 01:32:00,69.0,67.0,29.75,South,182,3.0,10.0,92,0.00,,,0.56,,2013-05-22 05:32:00,
2013-05-22 01:42:00,70.0,67.0,29.73,South,186,0.0,6.0,90,0.00,,,0.56,,2013-05-22 05:42:00,
2013-05-22 01:52:00,70.0,67.0,29.73,South,186,0.0,6.0,90,0.00,,,0.56,,2013-05-22 05:52:00,
2013-05-22 02:01:00,70.0,67.0,29.73,South,186,0.0,6.0,90,0.00,,,0.56,,2013-05-22 06:01:00,
2013-05-22 02:11:00,70.0,67.0,29.73,South,186,0.0,6.0,90,0.00,,,0.56,,2013-05-22 06:11:00,
2013-05-22 02:21:00,70.0,67.0,29.73,South,186,0.0,6.0,90,0.00,,,0.56,,2013-05-22 06:21:00,
2013-05-22 02:31:00,70.0,67.0,29.73,South,184,6.0,7.0,89,0.00,,,0.56,,2013-05-22 06:31:00,
2013-05-22 02:42:00,70.0,67.0,29.73,South,188,7.0,7.0,89,0.00,,,0.56,,2013-05-22 06:42:00,
2013-05-22 02:52:00,70.0,67.0,29.73,South,188,7.0,7.0,89,0.00,,,0.56,,2013-05-22 06:52:00,
2013-05-22 03:01:00,70.0,67.0,29.73,South,188,7.0,7.0,89,0.00,,,0.56,,2013-05-22 07:01:00,
2013-05-22 03:11:00,70.0,67.0,29.73,South,188,7.0,7.0,89,0.00,,,0.56,,2013-05-22 07:11:00,
2013-05-22 03:21:00,70.0,67.0,29.73,South,188,7.0,7.0,89,0.00,,,0.56,,2013-05-22 07:21:00,
2013-05-22 03:32:00,70.0,67.0,29.73,South,185,5.0,9.0,89,0.00,,,0.54,,2013-05-22 07:32:00,
2013-05-22 03:42:00,70.0,67.0,29.73,South,185,5.0,9.0,89,0.00,,,0.54,,2013-05-22 07:42:00,
2013-05-22 03:53:00,70.0,67.0,29.72,South,184,3.0,5.0,89,0.00,,,0.32,,2013-05-22 07:53:00,
2013-05-22 04:02:00,70.0,67.0,29.72,South,184,3.0,5.0,89,0.00,,,0.32,,2013-05-22 08:02:00,
2013-05-22 04:11:00,70.0,67.0,29.72,South,184,3.0,5.0,89,0.00,,,0.32,,2013-05-22 08:11:00,
2013-05-22 04:22:00,70.0,67.0,29.72,South,184,3.0,5.0,89,0.00,,,0.32,,2013-05-22 08:22:00,
2013-05-22 04:31:00,70.0,67.0,29.72,South,169,1.0,6.0,90,0.00,,,0.05,,2013-05-22 08:31:00,
2013-05-22 04:42:00,70.0,67.0,29.72,South,169,1.0,6.0,90,0.00,,,0.05,,2013-05-22 08:42:00,
2013-05-22 04:52:00,70.0,67.0,29.72,South,169,1.0,6.0,90,0.00,,,0.05,,2013-05-22 08:52:00,
2013-05-22 05:01:00,69.0,66.0,29.72,South,175,1.0,4.0,91,0.00,,,0.01,,2013-05-22 09:01:00,
2013-05-22 05:11:00,69.0,66.0,29.72,South,175,1.0,4.0,91,0.00,,,0.01,,2013-05-22 09:11:00,
2013-05-22 05:22:00,69.0,67.0,29.72,South,175,0.0,5.0,92,0.00,,,0.01,,2013-05-22 09:22:00,
2013-05-22 05:33:00,69.0,67.0,29.71,South,175,0.0,5.0,92,0.00,,,0.01,,2013-05-22 09:33:00,
2013-05-22 05:42:00,69.0,67.0,29.71,South,175,0.0,5.0,92,0.00,,,0.01,,2013-05-22 09:42:00,
2013-05-22 05:53:00,69.0,67.0,29.71,South,175,2.0,5.0,93,0.01,,,0.01,,2013-05-22 09:53:00,
2013-05-22 06:03:00,68.0,66.0,29.71,South,175,3.0,6.0,93,0.01,,,0.01,,2013-05-22 10:03:00,
2013-05-22 06:12:00,68.0,66.0,29.71,South,175,3.0,5.0,93,0.01,,,0.01,,2013-05-22 10:12:00,
2013-05-22 06:22:00,68.0,66.0,29.71,South,175,3.0,5.0,93,0.01,,,0.01,,2013-05-22 10:22:00,
2013-05-22 06:33:00,68.0,66.0,29.71,South,175,3.0,5.0,93,0.01,,,0.01,,2013-05-22 10:33:00,
2013-05-22 06:42:00,68.0,66.0,29.71,South,175,3.0,5.0,93,0.01,,,0.01,,2013-05-22 10:42:00,
2013-05-22 06:52:00,68.0,66.0,29.71,South,175,3.0,5.0,93,0.01,,,0.01,,2013-05-22 10:52:00,
2013-05-22 07:32:00,68.0,67.0,29.71,SSE,161,3.0,7.0,95,0.00,,,0.01,,2013-05-22 11:32:00,
2013-05-22 07:42:00,68.0,67.0,29.71,SSE,161,3.0,7.0,95,0.00,,,0.01,,2013-05-22 11:42:00,
2013-05-22 07:52:00,68.0,67.0,29.71,SSE,161,3.0,7.0,95,0.00,,,0.01,,2013-05-22 11:52:00,
2013-05-22 08:02:00,68.0,66.0,29.70,SE,142,2.0,5.0,94,0.00,,,0.01,,2013-05-22 12:02:00,
2013-05-22 08:12:00,68.0,66.0,29.70,SE,142,2.0,5.0,94,0.00,,,0.01,,2013-05-22 12:12:00,
2013-05-22 08:22:00,68.0,66.0,29.70,SSE,148,3.0,10.0,94,0.00,,,0.01,,2013-05-22 12:22:00,
2013-05-22 08:32:00,68.0,66.0,29.70,SSE,168,6.0,9.0,94,0.00,,,0.01,,2013-05-22 12:32:00,
2013-05-22 08:42:00,68.0,66.0,29.70,South,183,6.0,9.0,94,0.00,,,0.01,,2013-05-22 12:42:00,
2013-05-22 08:52:00,68.0,66.0,29.70,South,183,6.0,9.0,94,0.00,,,0.01,,2013-05-22 12:52:00,
2013-05-22 09:01:00,68.0,66.0,29.70,SSE,152,3.0,12.0,93,0.00,,,0.01,,2013-05-22 13:01:00,
2013-05-22 09:11:00,68.0,66.0,29.70,SSE,152,3.0,12.0,93,0.00,,,0.01,,2013-05-22 13:11:00,
2013-05-22 09:22:00,68.0,66.0,29.70,South,191,14.0,14.0,93,0.00,,,0.01,,2013-05-22 13:22:00,
2013-05-22 09:32:00,67.0,65.0,29.69,South,182,2.0,10.0,94,0.00,,,0.01,,2013-05-22 13:32:00,
2013-05-22 09:41:00,67.0,65.0,29.69,South,182,2.0,10.0,94,0.00,,,0.01,,2013-05-22 13:41:00,
2013-05-22 09:52:00,67.0,65.0,29.69,South,182,2.0,10.0,94,0.00,,,0.01,,2013-05-22 13:52:00,
2013-05-22 10:02:00,67.0,65.0,29.69,South,182,2.0,10.0,94,0.00,,,0.01,,2013-05-22 14:02:00,
2013-05-22 10:11:00,66.0,65.0,29.69,SSW,195,5.0,15.0,95,0.00,,,0.01,,2013-05-22 14:11:00,
2013-05-22 10:21:00,66.0,65.0,29.69,SSW,195,5.0,15.0,95,0.00,,,0.01,,2013-05-22 14:21:00,
2013-05-22 10:32:00,66.0,65.0,29.69,SSW,195,5.0,15.0,95,0.00,,,0.01,,2013-05-22 14:32:00,
2013-05-22 10:42:00,66.0,65.0,29.69,South,191,1.0,14.0,96,0.01,,,0.02,,2013-05-22 14:42:00,
2013-05-22 10:52:00,66.0,65.0,29.69,South,191,1.0,14.0,96,0.01,,,0.02,,2013-05-22 14:52:00,
2013-05-22 11:01:00,66.0,65.0,29.69,South,191,1.0,14.0,96,0.01,,,0.02,,2013-05-22 15:01:00,
2013-05-22 11:11:00,66.0,65.0,29.69,South,191,1.0,14.0,96,0.01,,,0.02,,2013-05-22 15:11:00,
2013-05-22 11:21:00,67.0,66.0,29.68,South,170,5.0,10.0,96,0.01,,,0.02,,2013-05-22 15:21:00,
2013-05-22 11:33:00,67.0,66.0,29.68,South,170,5.0,10.0,96,0.01,,,0.02,,2013-05-22 15:33:00,
2013-05-22 11:43:00,67.0,66.0,29.68,South,170,5.0,10.0,96,0.01,,,0.02,,2013-05-22 15:43:00,
2013-05-22 11:53:00,67.0,66.0,29.68,South,170,5.0,10.0,96,0.01,,,0.02,,2013-05-22 15:53:00,
2013-05-22 12:03:00,67.0,66.0,29.70,South,183,2.0,12.0,95,0.00,,,0.02,,2013-05-22 16:03:00,
2013-05-22 12:12:00,67.0,66.0,29.70,South,183,2.0,12.0,95,0.00,,,0.02,,2013-05-22 16:12:00,
2013-05-22 12:23:00,68.0,66.0,29.70,South,175,9.0,12.0,94,0.00,,,0.02,,2013-05-22 16:23:00,
2013-05-22 12:32:00,68.0,66.0,29.70,SSW,204,4.0,14.0,93,0.00,,,0.02,,2013-05-22 16:32:00,
2013-05-22 12:42:00,68.0,66.0,29.70,SSW,204,4.0,14.0,93,0.00,,,0.02,,2013-05-22 16:42:00,
2013-05-22 12:52:00,68.0,66.0,29.70,SSW,204,4.0,14.0,93,0.00,,,0.02,,2013-05-22 16:52:00,
2013-05-22 13:02:00,68.0,66.0,29.70,SSW,204,4.0,14.0,93,0.00,,,0.02,,2013-05-22 17:02:00,
2013-05-22 13:11:00,70.0,67.0,29.70,SSW,196,10.0,18.0,89,0.01,,,0.03,,2013-05-22 17:11:00,
2013-05-22 13:23:00,70.0,67.0,29.70,SSW,196,10.0,18.0,89,0.01,,,0.03,,2013-05-22 17:23:00,
2013-05-22 13:33:00,69.0,66.0,29.70,South,188,12.0,16.0,90,0.04,,,0.07,,2013-05-22 17:33:00,
2013-05-22 13:42:00,69.0,66.0,29.70,South,188,12.0,16.0,90,0.04,,,0.07,,2013-05-22 17:42:00,
2013-05-22 13:53:00,66.0,64.0,29.70,SW,218,4.0,11.0,94,0.30,,,0.32,,2013-05-22 17:53:00,
2013-05-22 14:02:00,66.0,64.0,29.70,SW,218,4.0,11.0,94,0.30,,,0.32,,2013-05-22 18:02:00,
2013-05-22 14:14:00,66.0,64.0,29.70,SW,218,4.0,11.0,94,0.30,,,0.32,,2013-05-22 18:14:00,
2013-05-22 14:22:00,66.0,64.0,29.70,SW,218,4.0,11.0,94,0.30,,,0.32,,2013-05-22 18:22:00,
2013-05-22 14:52:00,67.0,66.0,29.69,SW,224,7.0,13.0,97,0.30,,,0.58,,2013-05-22 18:52:00,
2013-05-22 15:02:00,68.0,67.0,29.68,SSW,201,9.0,15.0,95,0.01,,,0.58,,2013-05-22 19:02:00,
2013-05-22 15:11:00,69.0,67.0,29.68,WSW,248,4.0,10.0,94,0.00,,,0.58,,2013-05-22 19:11:00,
2013-05-22 15:21:00,69.0,67.0,29.68,WSW,248,4.0,10.0,94,0.00,,,0.58,,2013-05-22 19:21:00,
2013-05-22 15:32:00,69.0,66.0,29.69,WNW,294,7.0,16.0,91,0.00,,,0.58,,2013-05-22 19:32:00,
2013-05-22 15:42:00,68.0,64.0,29.69,WSW,256,14.0,19.0,88,0.00,,,0.58,,2013-05-22 19:42:00,
2013-05-22 15:52:00,68.0,64.0,29.69,WSW,256,14.0,19.0,88,0.00,,,0.58,,2013-05-22 19:52:00,
2013-05-22 16:02:00,68.0,64.0,29.69,WSW,256,14.0,19.0,88,0.00,,,0.58,,2013-05-22 20:02:00,
2013-05-22 16:11:00,66.0,62.0,29.70,West,264,3.0,24.0,88,0.00,,,0.58,,2013-05-22 20:11:00,
2013-05-22 16:21:00,66.0,62.0,29.70,West,264,3.0,24.0,88,0.00,,,0.58,,2013-05-22 20:21:00,
2013-05-22 16:32:00,64.0,62.0,29.72,WSW,244,4.0,14.0,92,0.03,,,0.60,,2013-05-22 20:32:00,
2013-05-22 16:42:00,64.0,62.0,29.71,West,265,7.0,9.0,94,0.03,,,0.60,,2013-05-22 20:42:00,
2013-05-22 16:51:00,64.0,62.0,29.71,West,265,7.0,9.0,94,0.03,,,0.60,,2013-05-22 20:51:00,
2013-05-22 17:01:00,64.0,62.0,29.71,West,265,7.0,9.0,94,0.03,,,0.60,,2013-05-22 21:01:00,
2013-05-22 17:11:00,64.0,63.0,29.71,WSW,239,2.0,7.0,96,0.04,,,0.61,,2013-05-22 21:11:00,
2013-05-22 17:21:00,64.0,63.0,29.71,WSW,239,2.0,7.0,96,0.04,,,0.61,,2013-05-22 21:21:00,
2013-05-22 17:33:00,65.0,63.0,29.70,SW,232,4.0,10.0,94,0.01,,,0.61,,2013-05-22 21:33:00,
2013-05-22 17:42:00,65.0,63.0,29.70,SW,232,4.0,10.0,94,0.01,,,0.61,,2013-05-22 21:42:00,
2013-05-22 17:53:00,65.0,63.0,29.70,SW,232,4.0,10.0,94,0.01,,,0.61,,2013-05-22 21:53:00,
2013-05-22 18:03:00,66.0,62.0,29.70,West,262,5.0,15.0,87,0.00,,,0.61,,2013-05-22 22:03:00,
2013-05-22 18:12:00,66.0,62.0,29.71,WSW,249,10.0,13.0,86,0.00,,,0.61,,2013-05-22 22:12:00,
2013-05-22 18:22:00,66.0,62.0,29.71,WSW,249,10.0,13.0,86,0.00,,,0.61,,2013-05-22 22:22:00,
2013-05-22 18:33:00,66.0,61.0,29.72,West,267,1.0,13.0,85,0.00,,,0.61,,2013-05-22 22:33:00,
2013-05-22 18:42:00,67.0,61.0,29.71,West,267,10.0,13.0,82,0.00,,,0.61,,2013-05-22 22:42:00,
2013-05-22 18:52:00,67.0,61.0,29.71,West,267,10.0,13.0,82,0.00,,,0.61,,2013-05-22 22:52:00,
2013-05-22 19:02:00,67.0,62.0,29.70,WSW,252,0.0,9.0,83,0.00,,,0.61,,2013-05-22 23:02:00,
2013-05-22 19:12:00,67.0,62.0,29.70,WSW,252,0.0,9.0,83,0.00,,,0.61,,2013-05-22 23:12:00,
2013-05-22 19:21:00,67.0,62.0,29.70,WSW,252,0.0,9.0,83,0.00,,,0.61,,2013-05-22 23:21:00,
2013-05-22 19:32:00,68.0,62.0,29.70,West,273,4.0,12.0,81,0.00,,,0.61,,2013-05-22 23:32:00,
2013-05-22 19:42:00,68.0,62.0,29.70,WNW,303,5.0,11.0,82,0.00,,,0.61,,2013-05-22 23:42:00,
2013-05-22 19:53:00,68.0,62.0,29.70,WNW,303,5.0,11.0,82,0.00,,,0.61,,2013-05-22 23:53:00,
2013-05-22 20:01:00,69.0,63.0,29.70,WSW,246,7.0,7.0,81,0.00,,,0.61,,2013-05-23 00:01:00,
2013-05-22 20:11:00,68.0,62.0,29.71,WSW,245,2.0,6.0,82,0.00,,,0.61,,2013-05-23 00:11:00,
2013-05-22 20:22:00,68.0,62.0,29.71,WSW,245,2.0,6.0,82,0.00,,,0.61,,2013-05-23 00:22:00,
2013-05-22 20:31:00,68.0,62.0,29.71,WSW,245,3.0,5.0,82,0.00,,,0.61,,2013-05-23 00:31:00,
2013-05-22 20:42:00,68.0,62.0,29.71,WSW,245,3.0,5.0,82,0.00,,,0.61,,2013-05-23 00:42:00,
2013-05-22 20:52:00,68.0,63.0,29.72,WSW,250,1.0,5.0,83,0.00,,,0.61,,2013-05-23 00:52:00,
2013-05-22 21:01:00,68.0,63.0,29.72,WSW,250,1.0,5.0,83,0.00,,,0.61,,2013-05-23 01:01:00,
2013-05-22 21:11:00,67.0,62.0,29.72,WSW,250,1.0,1.0,84,0.00,,,0.61,,2013-05-23 01:11:00,
2013-05-22 21:21:00,67.0,62.0,29.72,WSW,250,1.0,1.0,84,0.00,,,0.61,,2013-05-23 01:21:00,
2013-05-22 21:32:00,67.0,63.0,29.73,WSW,250,0.0,0.0,86,0.00,,,0.61,,2013-05-23 01:32:00,
2013-05-22 21:42:00,66.0,62.0,29.73,WSW,250,0.0,0.0,88,0.00,,,0.61,,2013-05-23 01:42:00,
2013-05-22 21:52:00,66.0,62.0,29.73,WSW,250,0.0,0.0,88,0.00,,,0.61,,2013-05-23 01:52:00,
2013-05-22 22:01:00,66.0,63.0,29.73,WSW,250,0.0,0.0,89,0.00,,,0.61,,2013-05-23 02:01:00,
2013-05-22 22:11:00,65.0,62.0,29.73,WSW,250,0.0,0.0,90,0.00,,,0.61,,2013-05-23 02:11:00,
2013-05-22 22:20:00,64.0,62.0,29.74,WSW,250,0.0,0.0,93,0.00,,,0.61,,2013-05-23 02:20:00,
2013-05-22 22:21:00,65.0,62.0,29.73,WSW,250,0.0,0.0,90,0.00,,,0.61,,2013-05-23 02:21:00,
2013-05-22 22:31:00,65.0,63.0,29.74,WSW,250,0.0,0.0,92,0.00,,,0.61,,2013-05-23 02:31:00,
2013-05-22 22:42:00,65.0,63.0,29.74,WSW,250,0.0,0.0,92,0.00,,,0.61,,2013-05-23 02:42:00,
2013-05-22 22:51:00,65.0,63.0,29.74,WSW,250,0.0,0.0,92,0.00,,,0.61,,2013-05-23 02:51:00,
2013-05-22 23:01:00,64.0,62.0,29.74,WSW,250,0.0,0.0,93,0.00,,,0.61,,2013-05-23 03:01:00,
2013-05-22 23:11:00,64.0,62.0,29.74,WSW,250,0.0,0.0,93,0.00,,,0.61,,2013-05-23 03:11:00,
2013-05-22 23:33:00,63.0,61.0,29.75,WSW,250,1.0,5.0,92,0.02,,,0.63,,2013-05-23 03:33:00,
2013-05-22 23:43:00,63.0,61.0,29.75,WSW,250,1.0,5.0,92,0.02,,,0.63,,2013-05-23 03:43:00,
2013-05-22 23:53:00,63.0,61.0,29.75,WSW,250,2.0,3.0,92,0.02,,,0.63,,2013-05-23 03:53:00,